Weather History for Falls City, NE

Change the Weather History Date:

Friday, December 21, 2012

  Actual Average Record
Temperature  
Mean Temperature 24 °F -  
Max Temperature 34 °F 34 °F 59 °F (1979)
Min Temperature 14 °F 15 °F -16 °F (1989)
Degree Days  
Heating Degree Days 41    
Moisture  
Dew Point 15 °F    
Average Humidity 72    
Maximum Humidity 84    
Minimum Humidity 56    
Precipitation  
Precipitation 0.00 in - - ()
Sea Level Pressure  
Sea Level Pressure 30.31 in    
Wind  
Wind Speed 4 mph (SSE)    
Max Wind Speed 8 mph    
Max Gust Speed -    
Visibility 10 miles    
Events      
Averages and records for this station are not official NWS values.
T = Trace of Precipitation, MM = Missing Value Source: NWS Daily Summary

Daily Weather History Graph

Daily Weather History Graph

Search for Another Location

Airport:

Trip Planner

Search our weather history database for the weather conditions in past years. The results will help you decide how hot, cold, wet, or windy it might be!

Date:

Astronomy

Dec. 21, 2012 Rise Set
Actual Time 7:41 AM CST 5:00 PM CST
Civil Twilight 7:10 AM CST 5:31 PM CST
Nautical Twilight 6:36 AM CST 6:05 PM CST
Astronomical Twilight 6:03 AM CST 6:38 PM CST
Moon 12:48 PM CST (12/21) 1:28 AM CST (12/21)
Length of Visible Light 10h 20m
Length of Day
9h 19m
Waxing Gibbous, 65% of the Moon is Illuminated
Dec 21
Waxing Gibbous
Dec 28
Full
Jan 4
Last Quarter
Jan 11
New
Jan 18
First Quarter

Hourly Weather History & Observations

Time (CST) Temp. Windchill Dew Point Humidity Pressure Visibility Wind Dir Wind Speed Gust Speed Precip Events Conditions
12:53 AM 19.9 °F 13.4 °F 12.9 °F 74% 30.28 in 10.0 mi NW 4.6 mph - N/A   Clear
1:53 AM 17.1 °F 11.7 °F 12.0 °F 81% 30.30 in 10.0 mi NNW 3.5 mph - N/A   Clear
2:53 AM 17.1 °F 11.7 °F 12.0 °F 81% 30.30 in 10.0 mi NW 3.5 mph - N/A   Clear
3:53 AM 18.0 °F 7.7 °F 10.9 °F 74% 30.30 in 10.0 mi West 8.1 mph - N/A   Clear
4:53 AM 18.0 °F 8.7 °F 10.9 °F 74% 30.31 in 10.0 mi West 6.9 mph - N/A   Clear
5:53 AM 15.1 °F 6.4 °F 10.0 °F 80% 30.32 in 10.0 mi WNW 5.8 mph - N/A   Clear
6:53 AM 14.0 °F 6.5 °F 9.0 °F 80% 30.33 in 10.0 mi West 4.6 mph - N/A   Clear
7:53 AM 15.1 °F - 9.0 °F 77% 30.35 in 10.0 mi Calm Calm - N/A   Clear
8:53 AM 14.0 °F - 10.0 °F 84% 30.37 in 10.0 mi Calm Calm - N/A   Clear
9:53 AM 21.0 °F - 14.0 °F 74% 30.39 in 10.0 mi Calm Calm - N/A   Clear
10:53 AM 25.0 °F - 14.0 °F 63% 30.38 in 10.0 mi Calm Calm - N/A   Clear
11:53 AM 27.0 °F - 16.0 °F 63% 30.36 in 10.0 mi Calm Calm - N/A   Clear
12:53 PM 28.0 °F - 14.0 °F 56% 30.34 in 10.0 mi Calm Calm - N/A   Clear
1:53 PM 30.9 °F 27.5 °F 19.0 °F 61% 30.32 in 10.0 mi SE 3.5 mph - N/A   Clear
2:53 PM 33.1 °F 30.0 °F 19.9 °F 59% 30.30 in 10.0 mi ESE 3.5 mph - N/A   Clear
3:53 PM 34.0 °F 28.8 °F 21.9 °F 61% 30.30 in 10.0 mi SE 5.8 mph - N/A   Clear
4:53 PM 30.9 °F 25.2 °F 21.0 °F 67% 30.30 in 10.0 mi ESE 5.8 mph - N/A   Clear
5:53 PM 28.9 °F 22.8 °F 21.0 °F 72% 30.30 in 10.0 mi SE 5.8 mph - N/A   Clear
6:53 PM 27.0 °F 21.6 °F 19.0 °F 72% 30.30 in 10.0 mi SE 4.6 mph - N/A   Clear
7:53 PM 24.1 °F 16.0 °F 17.1 °F 75% 30.29 in 10.0 mi SSE 6.9 mph - N/A   Clear
8:53 PM 24.1 °F 18.2 °F 17.1 °F 75% 30.29 in 10.0 mi SE 4.6 mph - N/A   Clear
9:53 PM 23.0 °F 17.0 °F 16.0 °F 74% 30.27 in 10.0 mi SE 4.6 mph - N/A   Clear
10:53 PM 21.0 °F 13.4 °F 16.0 °F 81% 30.26 in 10.0 mi SE 5.8 mph - N/A   Clear
11:53 PM 21.0 °F 16.2 °F 15.1 °F 78% 30.24 in 10.0 mi SE 3.5 mph - N/A   Clear